H1 CPF 2 NER 2021 1 4 9 004 01 glonass139 H2 1808601 9139 43687 2021 1 4 0 0 0 2021 1 7 23 45 0 900 1 1 0 0 0 1 H9 10 0 59218 0.00000 0 -14672867.028 14287136.703 -15183758.204 10 0 59218 900.00000 0 -16178582.971 15125001.450 -12630530.975 10 0 59218 1800.00000 0 -17332239.113 15908112.249 -9831602.111 10 0 59218 2700.00000 0 -18127427.099 16577936.803 -6841449.928 10 0 59218 3600.00000 0 -18570774.164 17077691.153 -3718257.872 10 0 59218 4500.00000 0 -18681442.379 17354880.600 -522775.397 10 0 59218 5400.00000 0 -18490113.285 17363673.993 2682870.065 10 0 59218 6300.00000 0 -18037502.242 17067010.449 5836386.207 10 0 59218 7200.00000 0 -17372466.711 16438349.172 8876529.623 10 0 59218 8100.00000 0 -16549789.756 15462988.272 11744296.167 10 0 59218 9000.00000 0 -15627733.356 14138896.878 14384064.553 10 0 59218 9900.00000 0 -14665465.497 12477025.517 16744670.930 10 0 59218 10800.00000 0 -13720469.829 10501081.636 18780394.041 10 0 59218 11700.00000 0 -12846046.865 8246779.518 20451832.568 10 0 59218 12600.00000 0 -12089011.418 5760595.719 21726658.563 10 0 59218 13500.00000 0 -11487682.275 3098081.407 22580233.486 10 0 59218 14400.00000 0 -11070247.598 321801.093 22996076.072 10 0 59218 15300.00000 0 -10853573.647 -2501017.514 22966173.944 10 0 59218 16200.00000 0 -10842505.891 -5301026.227 22491133.768 10 0 59218 17100.00000 0 -11029691.134 -8009387.671 21580167.550 10 0 59218 18000.00000 0 -11395927.696 -10560387.464 20250915.446 10 0 59218 18900.00000 0 -11911028.918 -12893920.520 18529108.327 10 0 59218 19800.00000 0 -12535163.991 -14957749.755 16448076.015 10 0 59218 20700.00000 0 -13220620.310 -16709444.547 14048109.942 10 0 59218 21600.00000 0 -13913913.948 -18117919.408 11375691.583 10 0 59218 22500.00000 0 -14558160.126 -19164509.511 8482600.547 10 0 59218 23400.00000 0 -15095604.456 -19843538.661 5424918.757 10 0 59218 24300.00000 0 -15470208.609 -20162356.238 2261949.185 10 0 59218 25200.00000 0 -15630181.399 -20140841.735 -944930.409 10 0 59218 26100.00000 0 -15530348.118 -19810397.600 -4133456.722 10 0 59218 27000.00000 0 -15134257.414 -19212472.767 -7241690.041 10 0 59218 27900.00000 0 -14415935.650 -18396678.952 -10209219.598 10 0 59218 28800.00000 0 -13361213.377 -17418579.149 -12978341.247 10 0 59218 29700.00000 0 -11968566.354 -16337241.665 -15495184.074 10 0 59218 30600.00000 0 -10249433.883 -15212663.057 -17710763.588 10 0 59218 31500.00000 0 -8227999.338 -14103168.959 -19581940.381 10 0 59218 32400.00000 0 -5940440.296 -13062902.717 -21072265.270 10 0 59218 33300.00000 0 -3433678.056 -12139508.046 -22152694.123 10 0 59218 34200.00000 0 -763677.510 -11372103.728 -22802158.166 10 0 59218 35100.00000 0 2006632.815 -10789635.915 -23007978.488 10 0 59218 36000.00000 0 4809734.708 -10409677.654 -22766116.508 10 0 59218 36900.00000 0 7576089.875 -10237726.309 -22081255.339 10 0 59218 37800.00000 0 10236798.609 -10267028.438 -20966710.293 10 0 59218 38700.00000 0 12726237.147 -10478939.350 -19444170.100 10 0 59218 39600.00000 0 14984563.955 -10843801.925 -17543273.702 10 0 59218 40500.00000 0 16959990.710 -11322307.180 -15301030.795 10 0 59218 41400.00000 0 18610723.538 -11867278.590 -12761097.376 10 0 59218 42300.00000 0 19906493.782 -12425804.117 -9972920.616 10 0 59218 43200.00000 0 20829615.001 -12941625.040 -6990770.020 10 0 59218 44100.00000 0 21375522.825 -13357679.725 -3872674.222 10 0 59218 45000.00000 0 21552776.198 -13618693.878 -679284.864 10 0 59218 45900.00000 0 21382521.348 -13673706.883 2527309.620 10 0 59218 46800.00000 0 20897442.588 -13478426.669 5684796.452 10 0 59218 47700.00000 0 20140245.652 -12997312.964 8731852.832 10 0 59218 48600.00000 0 19161738.909 -12205300.546 11609338.030 10 0 59218 49500.00000 0 18018594.511 -11089089.454 14261439.831 10 0 59218 50400.00000 0 16770884.681 -9647947.693 16636753.022 10 0 59218 51300.00000 0 15479497.322 -7893992.474 18689269.411 10 0 59218 52200.00000 0 14203539.694 -5851937.973 20379260.883 10 0 59218 53100.00000 0 12997838.904 -3558319.892 21674039.243 10 0 59218 54000.00000 0 11910643.342 -1060228.665 22548579.254 10 0 59218 54900.00000 0 10981620.461 1586396.653 22985993.949 10 0 59218 55800.00000 0 10240233.610 4318843.732 22977853.983 10 0 59218 56700.00000 0 9704564.715 7069986.577 22524345.718 10 0 59218 57600.00000 0 9380630.984 9770832.829 21634265.459 10 0 59218 58500.00000 0 9262223.422 12353154.525 20324850.139 10 0 59218 59400.00000 0 9331273.303 14752094.667 18621447.500 10 0 59218 60300.00000 0 9558730.982 16908642.880 16557031.601 10 0 59218 61200.00000 0 9905920.210 18771878.447 14171572.252 10 0 59218 62100.00000 0 10326311.318 20300888.493 11511269.618 10 0 59218 63000.00000 0 10767639.063 21466282.141 8627667.746 10 0 59218 63900.00000 0 11174276.391 22251237.840 5576663.355 10 0 59218 64800.00000 0 11489764.320 22652040.343 2417428.259 10 0 59218 65700.00000 0 11659391.270 22678084.817 -788734.218 10 0 59218 66600.00000 0 11632712.709 22351347.751 -3979576.866 10 0 59218 67500.00000 0 11365904.116 21705346.694 -7093117.227 10 0 59218 68400.00000 0 10823846.927 20783632.335 -10068843.612 10 0 59218 69300.00000 0 9981858.108 19637876.213 -12848894.552 10 0 59218 70200.00000 0 8826988.867 18325634.498 -15379188.360 10 0 59218 71100.00000 0 7358835.948 16907882.012 -17610480.311 10 0 59218 72000.00000 0 5589829.549 15446420.446 -19499326.315 10 0 59218 72900.00000 0 3544983.885 14001270.060 -21008933.969 10 0 59218 73800.00000 0 1261119.032 12628154.791 -22109884.067 10 0 59218 74700.00000 0 -1214414.930 11376186.803 -22780708.230 10 0 59218 75600.00000 0 -3825459.547 10285847.932 -23008311.242 10 0 59218 76500.00000 0 -6509144.655 9387352.950 -22788229.673 10 0 59218 77400.00000 0 -9198273.414 8699463.374 -22124721.590 10 0 59218 78300.00000 0 -11823896.895 8228801.464 -21030685.440 10 0 59218 79200.00000 0 -14317971.314 7969692.897 -19527409.484 10 0 59218 80100.00000 0 -16615987.265 7904544.188 -17644156.535 10 0 59218 81000.00000 0 -18659461.458 8004738.287 -15417591.963 10 0 59218 81900.00000 0 -20398187.070 8232009.718 -12891066.084 10 0 59218 82800.00000 0 -21792148.789 8540240.306 -10113765.096 10 0 59218 83700.00000 0 -22813022.837 8877598.559 -7139747.393 10 0 59218 84600.00000 0 -23445199.678 9188931.166 -4026884.490 10 0 59218 85500.00000 0 -23686287.307 9418304.378 -835727.907 10 0 59219 0.00000 0 -23547075.101 9511586.718 2371675.127 10 0 59219 900.00000 0 -23050960.814 9418962.469 5532993.754 10 0 59219 1800.00000 0 -22232866.676 9097269.935 8586827.977 10 0 59219 2700.00000 0 -21137690.774 8512063.158 11473902.708 10 0 59219 3600.00000 0 -19818360.889 7639311.626 14138217.006 10 0 59219 4500.00000 0 -18333573.140 6466664.622 16528126.413 10 0 59219 5400.00000 0 -16745311.298 4994227.420 18597337.796 10 0 59219 6300.00000 0 -15116251.112 3234816.258 20305798.041 10 0 59219 7200.00000 0 -13507158.313 1213681.198 21620460.255 10 0 59219 8100.00000 0 -11974388.710 -1032292.040 22515913.766 10 0 59219 9000.00000 0 -10567593.968 -3455868.672 22974866.838 10 0 59219 9900.00000 0 -9327727.872 -6001187.089 22988473.764 10 0 59219 10800.00000 0 -8285434.983 -8605846.294 22556500.863 10 0 59219 11700.00000 0 -7459887.704 -11203273.119 21687328.684 10 0 59219 12600.00000 0 -6858119.130 -13725272.276 20397790.544 10 0 59219 13500.00000 0 -6474878.572 -16104654.862 18712850.357 10 0 59219 14400.00000 0 -6293015.060 -18277837.555 16665125.415 10 0 59219 15300.00000 0 -6284372.361 -20187305.596 14294262.613 10 0 59219 16200.00000 0 -6411157.769 -21783838.143 11646179.247 10 0 59219 17100.00000 0 -6627727.217 -23028403.943 8772182.003 10 0 59219 18000.00000 0 -6882711.735 -23893648.580 5727980.387 10 0 59219 18900.00000 0 -7121395.830 -24364911.269 2572612.859 10 0 59219 19800.00000 0 -7288247.428 -24440728.497 -632694.059 10 0 59219 20700.00000 0 -7329492.439 -24132803.052 -3825711.783 10 0 59219 21600.00000 0 -7195624.671 -23465439.330 -6944417.808 10 0 59219 22500.00000 0 -6843744.244 -22474468.218 -9928202.346 10 0 59219 23400.00000 0 -6239624.634 -21205706.320 -12719049.552 10 0 59219 24300.00000 0 -5359419.653 -19713014.032 -15262669.942 10 0 59219 25200.00000 0 -4190936.700 -18056033.890 -17509561.474 10 0 59219 26100.00000 0 -2734420.891 -16297704.226 -19415978.131 10 0 59219 27000.00000 0 -1002815.188 -14501652.608 -20944786.749 10 0 59219 27900.00000 0 978516.281 -12729578.581 -22066195.109 10 0 59219 28800.00000 0 3172591.778 -11038735.706 -22758336.817 10 0 59219 29700.00000 0 5532110.349 -9479618.581 -23007701.414 10 0 59219 30600.00000 0 8001192.095 -8093951.760 -22809401.150 10 0 59219 31500.00000 0 10517488.612 -6913064.861 -22167269.062 10 0 59219 32400.00000 0 13014576.286 -5956721.629 -21093786.256 10 0 59219 33300.00000 0 15424533.079 -5232451.609 -19609839.603 10 0 59219 34200.00000 0 17680591.439 -4735411.834 -17744314.436 10 0 59219 35100.00000 0 19719756.694 -4448783.450 -15533530.017 10 0 59219 36000.00000 0 21485281.508 -4344685.526 -13020528.782 10 0 59219 36900.00000 0 22928892.877 -4385566.356 -10254233.344 10 0 59219 37800.00000 0 24012678.496 -4526012.261 -7288488.000 10 0 59219 38700.00000 0 24710553.713 -4714896.109 -4181003.845 10 0 59219 39600.00000 0 25009247.913 -4897773.419 -992228.764 10 0 59219 40500.00000 0 24908769.645 -5019423.386 2215834.967 10 0 59219 41400.00000 0 24422331.849 -5026426.154 5380841.726 10 0 59219 42300.00000 0 23575741.405 -4869666.366 8441317.830 10 0 59219 43200.00000 0 22406279.834 -4506656.304 11337856.970 10 0 59219 44100.00000 0 20961123.317 -3903579.924 14014272.221 10 0 59219 45000.00000 0 19295369.387 -3036971.155 16418682.219 10 0 59219 45900.00000 0 17469753.818 -1894955.513 18504510.774 10 0 59219 46800.00000 0 15548153.741 -478002.548 20231381.215 10 0 59219 47700.00000 0 13594981.552 1200842.623 21565888.957 10 0 59219 48600.00000 0 11672578.065 3116258.794 22482238.475 10 0 59219 49500.00000 0 9838712.974 5231467.209 22962733.440 10 0 59219 50400.00000 0 8144295.759 7499535.733 22998111.548 10 0 59219 51300.00000 0 6631391.146 9865115.327 22587718.453 10 0 59219 52200.00000 0 5331620.352 12266537.825 21739517.930 10 0 59219 53100.00000 0 4265013.384 14638189.033 20469938.320 10 0 59219 54000.00000 0 3439358.968 16913059.942 18803558.013 10 0 59219 54900.00000 0 2850078.139 19025371.364 16772635.563 10 0 59219 55800.00000 0 2480626.021 20913163.919 14416492.747 10 0 59219 56700.00000 0 2303404.386 22520746.561 11780761.589 10 0 59219 57600.00000 0 2281146.424 23800902.250 8916508.859 10 0 59219 58500.00000 0 2368715.399 24716758.982 5879254.170 10 0 59219 59400.00000 0 2515241.440 25243248.058 2727899.858 10 0 59219 60300.00000 0 2666506.314 25368088.257 -476407.165 10 0 59219 61200.00000 0 2767475.339 25092254.196 -3671459.739 10 0 59219 62100.00000 0 2764869.160 24429908.614 -6795198.021 10 0 59219 63000.00000 0 2609665.977 23407800.735 -9786916.693 10 0 59219 63900.00000 0 2259427.650 22064155.332 -12588447.881 10 0 59219 64800.00000 0 1680350.161 20447098.567 -15145296.387 10 0 59219 65700.00000 0 848950.425 18612686.249 -17407704.671 10 0 59219 66600.00000 0 -246683.291 16622616.971 -19331626.306 10 0 59219 67500.00000 0 -1606131.777 14541725.885 -20879588.600 10 0 59219 68400.00000 0 -3216409.865 12435364.058 -22021427.267 10 0 59219 69300.00000 0 -5052267.572 10366773.215 -22734878.537 10 0 59219 70200.00000 0 -7077016.378 8394565.771 -23006017.015 10 0 59219 71100.00000 0 -9243847.494 6570415.469 -22829530.571 10 0 59219 72000.00000 0 -11497588.065 4937055.181 -22208826.730 10 0 59219 72900.00000 0 -13776822.765 3526665.259 -21155968.336 10 0 59219 73800.00000 0 -16016292.772 2359719.417 -19691439.499 10 0 59219 74700.00000 0 -18149472.056 1444335.784 -17843746.276 10 0 59219 75600.00000 0 -20111213.451 776159.402 -15648859.676 10 0 59219 76500.00000 0 -21840353.709 338779.911 -13149511.835 10 0 59219 77400.00000 0 -23282168.284 104665.579 -10394359.199 10 0 59219 78300.00000 0 -24390572.837 36572.822 -7437029.302 10 0 59219 79200.00000 0 -25129979.080 89370.196 -4335070.137 10 0 59219 80100.00000 0 -25476727.085 212198.315 -1148823.303 10 0 59219 81000.00000 0 -25420034.268 350872.841 2059756.407 10 0 59219 81900.00000 0 -24962421.658 450427.558 5228311.258 10 0 59219 82800.00000 0 -24119600.295 457688.778 8295296.294 10 0 59219 83700.00000 0 -22919823.416 323771.241 11201176.332 10 0 59219 84600.00000 0 -21402732.566 6389.314 13889580.709 10 0 59219 85500.00000 0 -19617746.935 -528114.527 16308393.196 10 0 59220 0.00000 0 -17622064.179 -1303109.698 18410756.314 10 0 59220 900.00000 0 -15478356.681 -2330456.464 20155971.391 10 0 59220 1800.00000 0 -13252259.872 -3609773.970 21510277.248 10 0 59220 2700.00000 0 -11009757.081 -5128230.402 22447494.221 10 0 59220 3600.00000 0 -8814568.945 -6860862.240 22949521.706 10 0 59220 4500.00000 0 -6725655.491 -8771411.211 23006680.733 10 0 59220 5400.00000 0 -4794933.257 -10813644.222 22617895.854 10 0 59220 6300.00000 0 -3065301.001 -12933102.476 21790713.333 10 0 59220 7200.00000 0 -1569054.667 -15069208.030 20541155.509 10 0 59220 8100.00000 0 -326756.102 -17157641.410 18893413.993 10 0 59220 9000.00000 0 653398.675 -19132892.601 16879387.127 10 0 59220 9900.00000 0 1375686.291 -20930880.266 14538069.901 10 0 59220 10800.00000 0 1856434.366 -22491531.028 11914807.230 10 0 59220 11700.00000 0 2123089.605 -23761211.879 9060423.980 10 0 59220 12600.00000 0 2212815.104 -24694914.387 6030247.763 10 0 59220 13500.00000 0 2170676.072 -25258099.398 2883042.594 10 0 59220 14400.00000 0 2047490.580 -25428124.641 -320126.501 10 0 59220 15300.00000 0 1897436.137 -25195194.763 -3517076.110 10 0 59220 16200.00000 0 1775513.500 -24562793.172 -6645711.425 10 0 59220 17100.00000 0 1734975.387 -23547576.627 -9645234.013 10 0 59220 18000.00000 0 1824829.492 -22178736.074 -12457326.416 10 0 59220 18900.00000 0 2087522.280 -20496849.704 -15027290.165 10 0 59220 19800.00000 0 2556902.655 -18552275.571 -17305114.584 10 0 59220 20700.00000 0 3256552.785 -16403150.612 -19246455.051 10 0 59220 21600.00000 0 4198558.024 -14113079.438 -20813501.324 10 0 59220 22500.00000 0 5382769.348 -11748609.356 -21975718.696 10 0 59220 23400.00000 0 6796590.905 -9376597.066 -22710447.281 10 0 59220 24300.00000 0 8415303.168 -7061576.950 -23003347.576 10 0 59220 25200.00000 0 10202909.523 -4863240.725 -22848683.445 10 0 59220 26100.00000 0 12113471.987 -2834133.600 -22249436.858 10 0 59220 27000.00000 0 14092881.058 -1017662.796 -21217251.926 10 0 59220 27900.00000 0 16080986.269 553498.847 -19772209.147 10 0 59220 28800.00000 0 18013998.585 1858548.028 -17942434.061 10 0 59220 29700.00000 0 19827064.152 2889178.346 -15763547.814 10 0 59220 30600.00000 0 21456901.496 3649674.706 -13277970.245 10 0 59220 31500.00000 0 22844391.281 4156472.102 -10534089.255 10 0 59220 32400.00000 0 23937009.681 4437198.929 -7585312.880 10 0 59220 33300.00000 0 24691002.894 4529246.753 -4489022.972 10 0 59220 34200.00000 0 25073211.202 4477928.568 -1305451.586 10 0 59220 35100.00000 0 25062465.884 4334305.011 1903497.353 10 0 59220 36000.00000 0 24650500.444 4152771.973 5075457.383 10 0 59220 36900.00000 0 23842338.180 3988512.975 8148815.529 10 0 59220 37800.00000 0 22656140.419 3894925.161 11063910.782 10 0 59220 38700.00000 0 21122522.401 3921128.556 13764191.470 10 0 59220 39600.00000 0 19283366.227 4109664.311 16197308.899 10 0 59220 40500.00000 0 17190181.172 4494479.348 18316126.377 10 0 59220 41400.00000 0 14902080.305 5099282.411 20079624.712 10 0 59220 42300.00000 0 12483458.089 5936340.638 21453687.411 10 0 59220 43200.00000 0 10001465.515 7005767.209 22411751.517 10 0 59220 44100.00000 0 7523387.297 8295330.012 22935312.556 10 0 59220 45000.00000 0 5114029.300 9780789.583 23014274.880 10 0 59220 45900.00000 0 2833223.502 11426752.717 22647141.486 10 0 59220 46800.00000 0 733552.665 13188006.857 21841040.219 10 0 59220 47700.00000 0 -1141612.270 15011280.523 20611586.073 10 0 59220 48600.00000 0 -2759682.066 16837357.508 18982582.125 10 0 59220 49500.00000 0 -4099962.505 18603457.851 16985564.391 10 0 59220 50400.00000 0 -5154265.957 20245787.350 14659198.676 10 0 59220 51300.00000 0 -5926996.724 21702150.168 12048540.161 10 0 59220 52200.00000 0 -6434707.423 22914516.099 9204169.039 10 0 59220 53100.00000 0 -6705145.450 23831435.461 6181218.058 10 0 59220 54000.00000 0 -6775830.018 24410200.538 3038310.010 10 0 59220 54900.00000 0 -6692219.854 24618662.669 -163574.854 10 0 59220 55800.00000 0 -6505548.988 24436628.055 -3362279.710 10 0 59220 56700.00000 0 -6270422.231 23856772.806 -6495677.534 10 0 59220 57600.00000 0 -6042272.301 22885037.717 -9502879.358 10 0 59220 58500.00000 0 -5874786.575 21540485.013 -12325420.510 10 0 59220 59400.00000 0 -5817412.993 19854621.955 -14908401.359 10 0 59220 60300.00000 0 -5913051.427 17870218.550 -17201559.921 10 0 59220 61200.00000 0 -6196029.121 15639668.059 -19160254.917 10 0 59220 62100.00000 0 -6690446.882 13222958.156 -20746339.782 10 0 59220 63000.00000 0 -7408967.094 10685336.990 -21928910.329 10 0 59220 63900.00000 0 -8352095.953 8094771.323 -22684911.175 10 0 59220 64800.00000 0 -9507991.457 5519302.525 -22999588.997 10 0 59220 65700.00000 0 -10852806.508 3024410.441 -22866783.585 10 0 59220 66600.00000 0 -12351553.771 670494.954 -22289050.867 10 0 59220 67500.00000 0 -13959456.934 -1489420.122 -21277615.311 10 0 59220 68400.00000 0 -15623732.334 -3411665.403 -19852152.433 10 0 59220 69300.00000 0 -17285726.591 -5063504.530 -18040405.473 10 0 59220 70200.00000 0 -18883320.701 -6424247.787 -15877643.532 10 0 59220 71100.00000 0 -20353499.595 -7485855.253 -13405971.675 10 0 59220 72000.00000 0 -21634978.901 -8253005.344 -10673506.552 10 0 59220 72900.00000 0 -22670778.128 -8742627.405 -7733433.860 10 0 59220 73800.00000 0 -23410631.609 -8982919.684 -4642966.403 10 0 59220 74700.00000 0 -23813135.297 -9011895.730 -1462223.766 10 0 59220 75600.00000 0 -23847538.800 -8875522.365 1746943.885 10 0 59220 76500.00000 0 -23495107.068 -8625529.543 4922164.213 10 0 59220 77400.00000 0 -22749994.464 -8316986.154 8001758.991 10 0 59220 78300.00000 0 -21619594.745 -8005745.540 10925944.034 10 0 59220 79200.00000 0 -20124352.564 -7745869.657 13637989.147 10 0 59220 80100.00000 0 -18297044.877 -7587141.299 16085315.395 10 0 59220 81000.00000 0 -16181562.761 -7572769.721 18220508.763 10 0 59220 81900.00000 0 -13831244.826 -7737386.386 20002231.128 10 0 59220 82800.00000 0 -11306831.906 -8105415.078 21396011.734 10 0 59220 83700.00000 0 -8674128.032 -8689884.635 22374904.912 10 0 59220 84600.00000 0 -6001464.382 -9491733.939 22920002.439 10 0 59220 85500.00000 0 -3357070.837 -10499638.189 23020791.637 10 0 59221 0.00000 0 -806462.982 -11690363.830 22675353.208 10 0 59221 900.00000 0 1590048.362 -13029637.978 21890395.427 10 0 59221 1800.00000 0 3779623.500 -14473495.837 20681124.555 10 0 59221 2700.00000 0 5718842.860 -15970051.862 19070953.471 10 0 59221 3600.00000 0 7375260.340 -17461620.601 17091054.001 10 0 59221 4500.00000 0 8728496.604 -18887100.178 14779760.704 10 0 59221 5400.00000 0 9770828.487 -20184519.480 12181836.810 10 0 59221 6300.00000 0 10507250.647 -21293643.249 9347615.470 10 0 59221 7200.00000 0 10955007.502 -22158526.349 6332032.082 10 0 59221 8100.00000 0 11142615.591 -22729910.271 3193565.645 10 0 59221 9000.00000 0 11108417.738 -22967360.988 -6890.962 10 0 59221 9900.00000 0 10898730.110 -22841057.765 -3207210.079 10 0 59221 10800.00000 0 10565660.496 -22333156.826 -6345234.967 10 0 59221 11700.00000 0 10164690.200 -21438671.348 -9359988.533 10 0 59221 12600.00000 0 9752122.045 -20165829.510 -12192861.182 10 0 59221 13500.00000 0 9382502.861 -18535894.123 -14788754.272 10 0 59221 14400.00000 0 9106130.050 -16582450.057 -17097156.487 10 0 59221 15300.00000 0 8966748.369 -14350188.100 -19073131.645 10 0 59221 16200.00000 0 8999535.109 -11893235.061 -20678198.356 10 0 59221 17100.00000 0 9229459.686 -9273099.034 -21881084.119 10 0 59221 18000.00000 0 9670087.867 -6556314.967 -22658338.872 10 0 59221 18900.00000 0 10322882.015 -3811888.220 -22994795.893 10 0 59221 19800.00000 0 11177027.851 -1108642.246 -22883870.928 10 0 59221 20700.00000 0 12209795.885 1487419.361 -22327693.505 10 0 59221 21600.00000 0 13387423.062 3915626.876 -21337067.730 10 0 59221 22500.00000 0 14666478.188 6122930.163 -19931263.086 10 0 59221 23400.00000 0 15995654.001 8065861.139 -18137639.128 10 0 59221 24300.00000 0 17317910.719 9712091.796 -15991111.222 10 0 59221 25200.00000 0 18572880.775 11041523.449 -13533467.645 10 0 59221 26100.00000 0 19699433.182 12046862.682 -10812551.476 10 0 59221 27000.00000 0 20638289.149 12733661.150 -7881323.451 10 0 59221 27900.00000 0 21334578.136 13119819.123 -4796824.452 10 0 59221 28800.00000 0 21740226.116 13234575.289 -1619058.527 10 0 59221 29700.00000 0 21816074.817 13117027.183 1590181.091 10 0 59221 30600.00000 0 21533642.283 12814246.411 4768519.367 10 0 59221 31500.00000 0 20876450.342 12379069.855 7854215.898 10 0 59221 32400.00000 0 19840863.033 11867661.578 10787366.215 10 0 59221 33300.00000 0 18436400.841 11336949.542 13511064.224 10 0 59221 34200.00000 0 16685517.702 10842046.090 15972503.083 10 0 59221 35100.00000 0 14622850.348 10433761.455 18123993.437 10 0 59221 36000.00000 0 12293971.466 10156315.126 19923879.884 10 0 59221 36900.00000 0 9753698.734 10045341.206 21337338.684 10 0 59221 37800.00000 0 7064029.953 10126271.188 22337042.354 10 0 59221 38700.00000 0 4291789.532 10413161.580 22903679.413 10 0 59221 39600.00000 0 1506083.380 10908015.115 23026320.217 10 0 59221 40500.00000 0 -1224333.379 11600623.673 22702622.731 10 0 59221 41400.00000 0 -3833668.091 12468939.472 21938874.844 10 0 59221 42300.00000 0 -6261574.749 13479959.190 20749872.668 10 0 59221 43200.00000 0 -8455409.262 14591084.522 19158637.063 10 0 59221 44100.00000 0 -10372163.691 15751902.944 17195973.418 10 0 59221 45000.00000 0 -11980000.355 16906314.951 14899882.475 10 0 59221 45900.00000 0 -13259323.169 17994919.522 12314832.701 10 0 59221 46800.00000 0 -14203342.459 18957558.515 9490907.250 10 0 59221 47700.00000 0 -14818110.294 19735913.764 6482841.182 10 0 59221 48600.00000 0 -15122025.380 20276048.000 3348966.743 10 0 59221 49500.00000 0 -15144828.596 20530782.657 150086.553 10 0 59221 50400.00000 0 -14926131.589 20461812.003 -3051703.669 10 0 59221 51300.00000 0 -14513540.567 20041463.791 -6194220.105 10 0 59221 52200.00000 0 -13960454.596 19254031.132 -9216400.016 10 0 59221 53100.00000 0 -13323631.540 18096618.168 -12059491.154 10 0 59221 54000.00000 0 -12660624.815 16579462.452 -14668197.900 10 0 59221 54900.00000 0 -12027199.627 14725718.894 -16991761.374 10 0 59221 55800.00000 0 -11474838.393 12570712.832 -18984951.966 10 0 59221 56700.00000 0 -11048441.288 10160692.097 -20608954.642 10 0 59221 57600.00000 0 -10784319.642 7551129.006 -21832129.461 10 0 59221 58500.00000 0 -10708567.529 4804642.264 -22630632.239 10 0 59221 59400.00000 0 -10835880.908 1988624.604 -22988883.103 10 0 59221 60300.00000 0 -11168874.723 -827325.581 -22899873.651 10 0 59221 61200.00000 0 -11697927.326 -3574062.065 -22365306.553 10 0 59221 62100.00000 0 -12401559.264 -6185527.776 -21395564.701 10 0 59221 63000.00000 0 -13247330.855 -8601261.526 -20009510.291 10 0 59221 63900.00000 0 -14193220.926 -10768670.281 -18234117.545 10 0 59221 64800.00000 0 -15189428.670 -12644972.754 -16103946.086 10 0 59221 65700.00000 0 -16180522.509 -14198733.772 -13660465.092 10 0 59221 66600.00000 0 -17107844.978 -15410926.023 -10951241.524 10 0 59221 67500.00000 0 -17912071.686 -16275475.813 -8029008.451 10 0 59221 68400.00000 0 -18535815.719 -16799271.238 -4950632.021 10 0 59221 69300.00000 0 -18926166.856 -17001633.888 -1775997.892 10 0 59221 70200.00000 0 -19037057.763 -16913277.982 1433160.505 10 0 59221 71100.00000 0 -18831356.689 -16574802.550 4614468.288 10 0 59221 72000.00000 0 -18282597.950 -16034781.827 7706125.701 10 0 59221 72900.00000 0 -17376276.972 -15347536.038 10648110.724 10 0 59221 73800.00000 0 -16110655.195 -14570677.818 13383343.978 10 0 59221 74700.00000 0 -14497041.007 -13762538.731 15858793.112 10 0 59221 75600.00000 0 -12559534.890 -12979584.880 18026495.558 10 0 59221 76500.00000 0 -10334249.391 -12273930.587 19844480.383 10 0 59221 77400.00000 0 -7868036.411 -11691054.545 21277572.189 10 0 59221 78300.00000 0 -5216774.504 -11267813.859 22298062.536 10 0 59221 79200.00000 0 -2443286.875 -11030838.700 22886237.053 10 0 59221 80100.00000 0 385024.225 -10995374.097 23030749.013 10 0 59221 81000.00000 0 3198729.620 -11164616.752 22728833.105 10 0 59221 81900.00000 0 5929007.413 -11529574.113 21986355.842 10 0 59221 82800.00000 0 8510251.422 -12069451.381 20817701.902 10 0 59221 83700.00000 0 10882547.246 -12752550.259 19245498.515 10 0 59221 84600.00000 0 12993914.746 -13537642.116 17300182.757 10 0 59221 85500.00000 0 14802225.049 -14375758.512 15019419.433 99